| time (UTC) | temp C | wind direction | speed KPH | gust KPH | rain 1hr cm | rain 24hr cm | rain mn cm | humidity % | barometer mb |
| 20260505035609 | 15 | 50 | 4.8 | 11.3 | 0.00 | 0.00 | 0.00 | 54 | 1032.3 |
| 20260505035109 | 15 | 42 | 1.6 | 12.9 | 0.00 | 0.00 | 0.00 | 54 | 1032.3 |
| 20260505034632 | 15 | 53 | 3.2 | 17.7 | 0.00 | 0.00 | 0.00 | 53 | 1032.2 |
| 20260505034132 | 15 | 14 | 8.0 | 17.7 | 0.00 | 0.00 | 0.00 | 53 | 1032.2 |
| 20260505033612 | 15 | 77 | 4.8 | 12.9 | 0.00 | 0.00 | 0.00 | 53 | 1032.1 |
| 20260505033115 | 15 | 55 | 4.8 | 11.3 | 0.00 | 0.00 | 0.00 | 53 | 1032.2 |
| 20260505032616 | 15 | 42 | 4.8 | 14.5 | 0.00 | 0.00 | 0.00 | 53 | 1032.1 |
| 20260505032058 | 15 | 75 | 4.8 | 19.3 | 0.00 | 0.00 | 0.00 | 52 | 1032.1 |
| 20260505031629 | 15 | 50 | 4.8 | 19.3 | 0.00 | 0.00 | 0.00 | 52 | 1032.1 |
| 20260505031128 | 16 | 39 | 6.4 | 12.9 | 0.00 | 0.00 | 0.00 | 52 | 1032.0 |
| 20260505030629 | 16 | 57 | 3.2 | 17.7 | 0.00 | 0.00 | 0.00 | 51 | 1032.1 |
| 20260505030111 | 16 | 56 | 4.8 | 17.7 | 0.00 | 0.00 | 0.00 | 51 | 1032.0 |
| 20260505025610 | 16 | 77 | 4.8 | 19.3 | 0.00 | 0.00 | 0.00 | 51 | 1032.0 |
| 20260505025113 | 16 | 50 | 8.0 | 19.3 | 0.00 | 0.00 | 0.00 | 51 | 1032.0 |
| 20260505024615 | 16 | 15 | 4.8 | 11.3 | 0.00 | 0.00 | 0.00 | 51 | 1032.1 |
| 20260505024136 | 16 | 71 | 3.2 | 14.5 | 0.00 | 0.00 | 0.00 | 51 | 1032.0 |
| 20260505023637 | 16 | 83 | 6.4 | 17.7 | 0.00 | 0.00 | 0.00 | 50 | 1032.1 |
| 20260505023058 | 16 | 55 | 6.4 | 17.7 | 0.00 | 0.00 | 0.00 | 50 | 1032.1 |
| 20260505022558 | 16 | 100 | 6.4 | 20.9 | 0.00 | 0.00 | 0.00 | 50 | 1032.0 |
| 20260505022100 | 16 | 61 | 9.7 | 20.9 | 0.00 | 0.00 | 0.00 | 49 | 1032.1 |
| 20260505021602 | 16 | 49 | 8.0 | 22.5 | 0.00 | 0.00 | 0.00 | 49 | 1032.0 |
| 20260505021100 | 17 | 79 | 9.7 | 22.5 | 0.00 | 0.00 | 0.00 | 49 | 1032.0 |
| 20260505020615 | 17 | 34 | 9.7 | 17.7 | 0.00 | 0.00 | 0.00 | 49 | 1031.9 |
| 20260505020057 | 17 | 63 | 8.0 | 19.3 | 0.00 | 0.00 | 0.00 | 48 | 1031.8 |
| 20260505015559 | 17 | 67 | 9.7 | 19.3 | 0.00 | 0.00 | 0.00 | 48 | 1031.7 |
| 20260505015100 | 17 | 62 | 4.8 | 20.9 | 0.00 | 0.00 | 0.00 | 48 | 1031.7 |
| 20260505014604 | 17 | 79 | 11.3 | 20.9 | 0.00 | 0.00 | 0.00 | 47 | 1031.7 |
| 20260505014106 | 17 | 62 | 4.8 | 14.5 | 0.00 | 0.00 | 0.00 | 47 | 1031.5 |
| 20260505013607 | 17 | 37 | 4.8 | 17.7 | 0.00 | 0.00 | 0.00 | 47 | 1031.5 |
| 20260505013109 | 17 | 84 | 8.0 | 17.7 | 0.00 | 0.00 | 0.00 | 46 | 1031.4 |
| 20260505012630 | 17 | 15 | 4.8 | 16.1 | 0.00 | 0.00 | 0.00 | 46 | 1031.3 |
| 20260505012110 | 17 | 52 | 9.7 | 16.1 | 0.00 | 0.00 | 0.00 | 46 | 1031.3 |
| 20260505011633 | 17 | 37 | 8.0 | 14.5 | 0.00 | 0.00 | 0.00 | 46 | 1031.2 |
| 20260505011111 | 17 | 62 | 6.4 | 19.3 | 0.00 | 0.00 | 0.00 | 45 | 1031.0 |
| 20260505010612 | 17 | 55 | 8.0 | 19.3 | 0.00 | 0.00 | 0.00 | 44 | 1030.9 |
| 20260505010117 | 17 | 19 | 6.4 | 17.7 | 0.00 | 0.00 | 0.00 | 45 | 1030.8 |
| 20260505005557 | 16 | 344 | 8.0 | 16.1 | 0.00 | 0.00 | 0.00 | 47 | 1030.7 |
| 20260505005115 | 15 | 60 | 0.0 | 3.2 | 0.00 | 0.00 | 0.00 | 49 | 1030.5 |
| 20260505004559 | 16 | 34 | 0.0 | 0.0 | 0.00 | 0.00 | 0.00 | 46 | 1030.3 |
| 20260505004100 | 16 | 34 | 0.0 | 0.0 | 0.00 | 0.00 | 0.00 | 45 | 1030.1 |
| 20260505003601 | 16 | 34 | 0.0 | 0.0 | 0.00 | 0.00 | 0.00 | 44 | 1030.1 |
| 20260505003105 | 17 | 34 | 0.0 | 0.0 | 0.00 | 0.00 | 0.00 | 43 | 1030.0 |
| 20260505002606 | 17 | 34 | 0.0 | 0.0 | 0.00 | 0.00 | 0.00 | 43 | 1029.9 |
| 20260505002108 | 17 | 34 | 0.0 | 0.0 | 0.00 | 0.00 | 0.00 | 43 | 1029.8 |
| 20260505001611 | 17 | 34 | 0.0 | 0.0 | 0.00 | 0.00 | 0.00 | 41 | 1029.6 |
| 20260505001132 | 17 | 34 | 0.0 | 0.0 | 0.00 | 0.00 | 0.00 | 41 | 1029.6 |
| 20260505000612 | 18 | 34 | 0.0 | 0.0 | 0.00 | 0.00 | 0.00 | 41 | 1029.5 |
| 20260505000116 | 18 | 34 | 0.0 | 3.2 | 0.00 | 0.00 | 0.00 | 39 | 1029.4 |
| 20260504235557 | 18 | 34 | 0.0 | 3.2 | 0.00 | 0.00 | 0.00 | 38 | 1029.4 |
| 20260504235058 | 19 | 128 | 0.0 | 0.0 | 0.00 | 0.00 | 0.00 | 37 | 1029.3 |
| 20260504234600 | 19 | 128 | 0.0 | 1.6 | 0.00 | 0.00 | 0.00 | 36 | 1029.3 |
| 20260504234102 | 19 | 128 | 0.0 | 1.6 | 0.00 | 0.00 | 0.00 | 36 | 1029.2 |
| 20260504233603 | 20 | 87 | 0.0 | 1.6 | 0.00 | 0.00 | 0.00 | 36 | 1029.1 |
| 20260504233105 | 20 | 121 | 0.0 | 4.8 | 0.00 | 0.00 | 0.00 | 35 | 1029.1 |
| 20260504232606 | 20 | 121 | 1.6 | 4.8 | 0.00 | 0.00 | 0.00 | 34 | 1029.0 |
| 20260504232128 | 20 | 96 | 1.6 | 6.4 | 0.00 | 0.00 | 0.00 | 34 | 1029.0 |
| 20260504231610 | 21 | 157 | 0.0 | 6.4 | 0.00 | 0.00 | 0.00 | 34 | 1028.8 |
| 20260504231111 | 21 | 90 | 0.0 | 4.8 | 0.00 | 0.00 | 0.00 | 34 | 1028.8 |
| 20260504230610 | 21 | 128 | 1.6 | 8.0 | 0.00 | 0.00 | 0.00 | 33 | 1028.7 |
| 20260504230113 | 21 | 57 | 0.0 | 11.3 | 0.00 | 0.00 | 0.00 | 32 | 1028.7 |
| 20260504225613 | 21 | 143 | 4.8 | 11.3 | 0.00 | 0.00 | 0.00 | 32 | 1028.7 |
| 20260504225135 | 21 | 46 | 1.6 | 17.7 | 0.00 | 0.00 | 0.00 | 32 | 1028.7 |
| 20260504224658 | 21 | 81 | 3.2 | 17.7 | 0.00 | 0.00 | 0.00 | 33 | 1028.5 |
| 20260504224135 | 21 | 117 | 1.6 | 12.9 | 0.00 | 0.00 | 0.00 | 32 | 1028.4 |
| 20260504223615 | 21 | 136 | 1.6 | 14.5 | 0.00 | 0.00 | 0.00 | 32 | 1028.4 |
| 20260504223057 | 21 | 120 | 4.8 | 14.5 | 0.00 | 0.00 | 0.00 | 32 | 1028.4 |
| 20260504222558 | 21 | 128 | 1.6 | 9.7 | 0.00 | 0.00 | 0.00 | 32 | 1028.4 |
| 20260504222121 | 21 | 96 | 3.2 | 8.0 | 0.00 | 0.00 | 0.00 | 32 | 1028.3 |
| 20260504221624 | 22 | 117 | 1.6 | 4.8 | 0.00 | 0.00 | 0.00 | 32 | 1028.4 |
| 20260504221123 | 22 | 91 | 1.6 | 8.0 | 0.00 | 0.00 | 0.00 | 32 | 1028.4 |
| 20260504220603 | 22 | 103 | 1.6 | 11.3 | 0.00 | 0.00 | 0.00 | 32 | 1028.5 |
| 20260504220125 | 22 | 117 | 3.2 | 9.7 | 0.00 | 0.00 | 0.00 | 30 | 1028.6 |
| 20260504215605 | 22 | 111 | 4.8 | 16.1 | 0.00 | 0.00 | 0.00 | 30 | 1028.4 |
| 20260504215106 | 22 | 105 | 8.0 | 16.1 | 0.00 | 0.00 | 0.00 | 30 | 1028.5 |
| 20260504214608 | 22 | 99 | 8.0 | 22.5 | 0.00 | 0.00 | 0.00 | 30 | 1028.4 |
| 20260504214130 | 22 | 96 | 6.4 | 22.5 | 0.00 | 0.00 | 0.00 | 30 | 1028.4 |
| 20260504213629 | 22 | 76 | 6.4 | 17.7 | 0.00 | 0.00 | 0.00 | 29 | 1028.5 |
| 20260504213111 | 22 | 105 | 3.2 | 14.5 | 0.00 | 0.00 | 0.00 | 31 | 1028.4 |
| 20260504212610 | 22 | 129 | 8.0 | 14.5 | 0.00 | 0.00 | 0.00 | 29 | 1028.4 |
| 20260504212110 | 22 | 60 | 4.8 | 12.9 | 0.00 | 0.00 | 0.00 | 30 | 1028.2 |
| 20260504211613 | 22 | 119 | 4.8 | 12.9 | 0.00 | 0.00 | 0.00 | 31 | 1028.4 |
| 20260504211113 | 21 | 125 | 6.4 | 12.9 | 0.00 | 0.00 | 0.00 | 31 | 1028.4 |
| 20260504210615 | 21 | 81 | 4.8 | 14.5 | 0.00 | 0.00 | 0.00 | 31 | 1028.3 |
| 20260504210058 | 22 | 109 | 6.4 | 14.5 | 0.00 | 0.00 | 0.00 | 30 | 1028.3 |
| 20260504205558 | 22 | 105 | 1.6 | 30.6 | 0.00 | 0.00 | 0.00 | 30 | 1028.2 |
| 20260504205120 | 22 | 130 | 4.8 | 30.6 | 0.00 | 0.00 | 0.00 | 30 | 1028.1 |
| 20260504204602 | 22 | 107 | 3.2 | 11.3 | 0.00 | 0.00 | 0.00 | 32 | 1028.2 |
| 20260504204123 | 21 | 143 | 1.6 | 16.1 | 0.00 | 0.00 | 0.00 | 32 | 1028.2 |
| 20260504203622 | 21 | 88 | 4.8 | 16.1 | 0.00 | 0.00 | 0.00 | 31 | 1028.3 |
| 20260504203105 | 21 | 89 | 3.2 | 9.7 | 0.00 | 0.00 | 0.00 | 31 | 1028.3 |
| 20260504202625 | 21 | 133 | 4.8 | 16.1 | 0.00 | 0.00 | 0.00 | 30 | 1028.3 |
| 20260504202125 | 21 | 26 | 6.4 | 16.1 | 0.00 | 0.00 | 0.00 | 29 | 1028.2 |
| 20260504201628 | 21 | 198 | 3.2 | 19.3 | 0.00 | 0.00 | 0.00 | 31 | 1028.2 |
| 20260504201107 | 21 | 107 | 9.7 | 19.3 | 0.00 | 0.00 | 0.00 | 30 | 1028.2 |
| 20260504200608 | 21 | 119 | 1.6 | 16.1 | 0.00 | 0.00 | 0.00 | 31 | 1028.4 |
| 20260504200131 | 21 | 69 | 4.8 | 16.1 | 0.00 | 0.00 | 0.00 | 30 | 1028.3 |
| 20260504195610 | 22 | 128 | 6.4 | 16.1 | 0.00 | 0.00 | 0.00 | 29 | 1028.3 |
| 20260504195108 | 22 | 138 | 3.2 | 20.9 | 0.00 | 0.00 | 0.00 | 28 | 1028.4 |
| 20260504194627 | 22 | 125 | 8.0 | 25.7 | 0.00 | 0.00 | 0.00 | 28 | 1028.5 |
| 20260504194100 | 22 | 138 | 8.0 | 25.7 | 0.00 | 0.00 | 0.00 | 29 | 1028.2 |
| 20260504193602 | 22 | 122 | 9.7 | 19.3 | 0.00 | 0.00 | 0.00 | 28 | 1028.4 |
| 20260504193104 | 22 | 39 | 6.4 | 25.7 | 0.00 | 0.00 | 0.00 | 28 | 1028.3 |
| 20260504192603 | 22 | 89 | 9.7 | 25.7 | 0.00 | 0.00 | 0.00 | 29 | 1028.4 |
| 20260504192104 | 22 | 124 | 6.4 | 25.7 | 0.00 | 0.00 | 0.00 | 29 | 1028.3 |
| 20260504191127 | 22 | 62 | 6.4 | 27.4 | 0.00 | 0.00 | 0.00 | 29 | 1028.6 |
| 20260504190607 | 22 | 58 | 8.0 | 20.9 | 0.00 | 0.00 | 0.00 | 29 | 1028.6 |
| 20260504190109 | 22 | 171 | 11.3 | 20.9 | 0.00 | 0.00 | 0.00 | 29 | 1028.8 |
| 20260504185610 | 22 | 71 | 6.4 | 14.5 | 0.00 | 0.00 | 0.00 | 28 | 1028.6 |
| 20260504185110 | 22 | 110 | 4.8 | 24.1 | 0.00 | 0.00 | 0.00 | 31 | 1028.7 |
| 20260504184113 | 22 | 71 | 6.4 | 17.7 | 0.00 | 0.00 | 0.00 | 30 | 1028.8 |
| 20260504183614 | 22 | 115 | 4.8 | 20.9 | 0.00 | 0.00 | 0.00 | 30 | 1028.8 |
| 20260504183136 | 21 | 137 | 9.7 | 20.9 | 0.00 | 0.00 | 0.00 | 30 | 1028.9 |
| 20260504182556 | 21 | 119 | 9.7 | 27.4 | 0.00 | 0.00 | 0.00 | 30 | 1028.9 |
| 20260504182057 | 21 | 105 | 12.9 | 27.4 | 0.00 | 0.00 | 0.00 | 30 | 1028.9 |
| 20260504181600 | 21 | 37 | 11.3 | 27.4 | 0.00 | 0.00 | 0.00 | 31 | 1029.0 |
| 20260504181101 | 21 | 86 | 11.3 | 27.4 | 0.00 | 0.00 | 0.00 | 30 | 1028.9 |
| 20260504180602 | 21 | 121 | 11.3 | 20.9 | 0.00 | 0.00 | 0.00 | 29 | 1028.8 |
| 20260504180105 | 21 | 127 | 8.0 | 20.9 | 0.00 | 0.00 | 0.00 | 30 | 1029.0 |
| 20260504175625 | 21 | 129 | 8.0 | 27.4 | 0.00 | 0.00 | 0.00 | 31 | 1029.1 |
| 20260504175123 | 21 | 134 | 12.9 | 27.4 | 0.00 | 0.00 | 0.00 | 30 | 1029.0 |
| 20260504174559 | 21 | 74 | 4.8 | 24.1 | 0.00 | 0.00 | 0.00 | 32 | 1029.0 |
| 20260504174057 | 21 | 102 | 6.4 | 24.1 | 0.00 | 0.00 | 0.00 | 31 | 1029.1 |
| 20260504173612 | 21 | 113 | 6.4 | 20.9 | 0.00 | 0.00 | 0.00 | 33 | 1029.2 |
| 20260504173113 | 21 | 53 | 9.7 | 27.4 | 0.00 | 0.00 | 0.00 | 32 | 1029.1 |
| 20260504172613 | 20 | 96 | 9.7 | 33.8 | 0.00 | 0.00 | 0.00 | 33 | 1029.2 |
| 20260504172115 | 20 | 115 | 8.0 | 33.8 | 0.00 | 0.00 | 0.00 | 33 | 1029.2 |
| 20260504171618 | 20 | 86 | 4.8 | 20.9 | 0.00 | 0.00 | 0.00 | 32 | 1029.3 |
| 20260504171057 | 20 | 56 | 11.3 | 20.9 | 0.00 | 0.00 | 0.00 | 33 | 1029.3 |
| 20260504170616 | 20 | 99 | 8.0 | 22.5 | 0.00 | 0.00 | 0.00 | 33 | 1029.4 |
| 20260504170140 | 20 | 70 | 11.3 | 22.5 | 0.00 | 0.00 | 0.00 | 33 | 1029.4 |
| 20260504151111 | 18 | 9 | 3.2 | 12.9 | 0.00 | 0.00 | 0.00 | 39 | 1030.2 |
| 20260504150611 | 18 | 81 | 4.8 | 16.1 | 0.00 | 0.00 | 0.00 | 37 | 1030.3 |
| 20260504150114 | 17 | 69 | 9.7 | 17.7 | 0.00 | 0.00 | 0.00 | 37 | 1030.4 |
| 20260504141104 | 16 | 120 | 11.3 | 19.3 | 0.00 | 0.08 | 0.00 | 41 | 1031.1 |
| 20260504140606 | 16 | 152 | 3.2 | 29.0 | 0.00 | 0.08 | 0.00 | 41 | 1031.2 |
| 20260504140109 | 16 | 117 | 8.0 | 19.3 | 0.00 | 0.08 | 0.00 | 42 | 1031.2 |
| 20260504130602 | 13 | 55 | 9.7 | 24.1 | 0.00 | 0.10 | 0.00 | 47 | 1031.9 |
| 20260504130105 | 13 | 39 | 8.0 | 19.3 | 0.00 | 0.10 | 0.00 | 48 | 1032.0 |
| 20260504110628 | 8 | 124 | 0.0 | 1.6 | 0.00 | 0.10 | 0.00 | 61 | 1032.9 |
| 20260504110109 | 8 | 98 | 0.0 | 3.2 | 0.00 | 0.10 | 0.00 | 60 | 1032.9 |
| 20260504100607 | 7 | 55 | 0.0 | 3.2 | 0.00 | 0.10 | 0.00 | 63 | 1032.8 |
| 20260504100108 | 6 | 66 | 0.0 | 3.2 | 0.00 | 0.10 | 0.00 | 63 | 1032.8 |
| 20260504090120 | 6 | 72 | 0.0 | 4.8 | 0.00 | 0.10 | 0.00 | 62 | 1032.6 |
| 20260504081610 | 6 | 68 | 0.0 | 0.0 | 0.00 | 0.10 | 0.00 | 63 | 1032.6 |
| 20260504081110 | 6 | 71 | 0.0 | 4.8 | 0.00 | 0.10 | 0.00 | 63 | 1032.7 |
| 20260504080631 | 6 | 79 | 0.0 | 4.8 | 0.00 | 0.10 | 0.00 | 63 | 1032.6 |
| 20260504080110 | 6 | 49 | 0.0 | 1.6 | 0.00 | 0.10 | 0.00 | 63 | 1032.6 |
| 20260504070105 | 5 | 54 | 0.0 | 3.2 | 0.00 | 0.10 | 0.00 | 65 | 1032.4 |
| 20260504060116 | 4 | 55 | 0.0 | 0.0 | 0.00 | 0.10 | 0.00 | 68 | 1032.5 |
| 20260504050607 | 2 | 55 | 0.0 | 0.0 | 0.00 | 0.10 | 0.00 | 72 | 1032.5 |
| 20260504050129 | 2 | 55 | 0.0 | 0.0 | 0.00 | 0.10 | 0.00 | 71 | 1032.5 |
| 20260504045609 | 3 | 55 | 0.0 | 0.0 | 0.00 | 0.10 | 0.00 | 71 | 1032.4 |
| 20260504045110 | 3 | 55 | 0.0 | 0.0 | 0.00 | 0.10 | 0.00 | 70 | 1032.4 |
| 20260504044613 | 3 | 55 | 0.0 | 0.0 | 0.00 | 0.10 | 0.00 | 70 | 1032.4 |
| 20260504044130 | 3 | 55 | 0.0 | 0.0 | 0.00 | 0.10 | 0.00 | 70 | 1032.5 |
| 20260504043630 | 3 | 55 | 0.0 | 0.0 | 0.00 | 0.10 | 0.00 | 69 | 1032.5 |
| 20260504043110 | 3 | 55 | 0.0 | 0.0 | 0.00 | 0.10 | 0.00 | 68 | 1032.5 |
| 20260504042611 | 3 | 55 | 0.0 | 0.0 | 0.00 | 0.10 | 0.00 | 69 | 1032.4 |
| 20260504042113 | 3 | 55 | 0.0 | 0.0 | 0.00 | 0.10 | 0.00 | 69 | 1032.4 |
| 20260504041615 | 3 | 55 | 0.0 | 0.0 | 0.00 | 0.10 | 0.00 | 69 | 1032.4 |
| 20260504041057 | 3 | 55 | 0.0 | 0.0 | 0.00 | 0.10 | 0.00 | 69 | 1032.3 |
| 20260504040557 | 3 | 55 | 0.0 | 0.0 | 0.00 | 0.10 | 0.00 | 69 | 1032.3 |
| 20260504040119 | 3 | 55 | 0.0 | 0.0 | 0.00 | 0.10 | 0.00 | 69 | 1032.3 |